カタログに戻る

STARLINK-31984

運用中通信VLEO
NORAD 60018·PAYLOAD·🇺🇸 United States

打ち上げ Jun 8, 2024 から Cape Canaveral Space Force Station

Loading…

次のパス (今後24時間)

TLE

最新Source: CelesTrak SupGP

元期: Sep 15, 2026, 02:57 UTC

1 60018C 24111C   26258.12340278 -.00007225  00000+0 -21326-3 0  2586
2 60018  53.1571 274.5427 0001207  87.5611 262.2950 15.34426127    10

AllMySatでSTARLINK-31984をリアルタイム追跡

Download on the App Store